Home > Weather > Mangaluru > Past weeks

Flag for India Weather for the Past 2 Weeks in Mangaluru, Karnataka, India

Now
70 °F

Fog.


Feels Like: 70 °F
Forecast: 77 / 89 °F
Wind: No wind

Location: Tiruchchirapalli

Current Time: Feb 6, 2016 at 7:16:41 AM

Latest Report: Feb 6, 2016 at 6:30 AM


Visibility: 1 mi

Pressure: 29.89 "Hg

Humidity: 88%

Dew point: 66 °F

Location of MangaluruLocation

Historic Weather in Mangaluru — Graph

°F

Mangaluru Temperature Yesterday

Maximum temperature yesterday: 90 °F (at 2:00 PM)
Minimum temperature yesterday: 72 °F (at 1:30 AM)
Average temperature yesterday: 79 °F

High & Low Weather Summary for the Past Weeks

 TemperatureHumidityPressure
High91 °F (Jan 29, 2:30 PM)100% (Jan 23, 12:00 AM)30.04 "Hg (Jan 23, 12:00 AM)
Low68 °F (Feb 4, 5:00 AM)38% (Feb 4, 2:30 PM)29.83 "Hg (Jan 22, 4:30 PM)
Average80 °F69%29.93 "Hg
* Reported Jan 22 5:30 AM — Feb 6 5:30 AM, Mangaluru, Weather by CustomWeather, © 2016

Note: Actual official high and low records may vary slightly from our data, if they occured in-between our weather recording intervals... More about our weather records

Advertising

Mangaluru Weather History for the Previous 24 Hours

 ConditionsComfort  
Time TempWeatherWind HumidityBarometerVisibility
5:30 AM
Sat, Feb 6
72 °FFog.3 mph83%29.86 "Hg1 mi
4:30 AM72 °FFog.No wind83%29.86 "Hg2 mi
4:00 AM72 °FFog.3 mph83%29.86 "Hg2 mi
3:30 AM72 °FFog.3 mph83%29.86 "Hg2 mi
3:00 AM72 °FFog.5 mph83%29.86 "Hg2 mi
2:30 AM72 °FFog.No wind83%29.89 "Hg2 mi
2:00 AM73 °FFog.No wind78%29.89 "Hg2 mi
1:30 AM73 °FFog.3 mph78%29.89 "Hg2 mi
1:00 AM73 °FFog.5 mph78%29.89 "Hg2 mi
12:30 AM73 °FFog.5 mph74%29.92 "Hg2 mi
12:00 AM75 °FHaze.7 mph69%29.92 "Hg2 mi
11:30 PM
Fri, Feb 5
75 °FHaze.9 mph69%29.92 "Hg2 mi
11:00 PM75 °FHaze.6 mph69%29.95 "Hg2 mi
10:30 PM77 °FHaze.9 mph65%29.95 "Hg2 mi
10:00 PM77 °FHaze.7 mph65%29.95 "Hg2 mi
9:30 PM77 °FHaze.6 mph61%29.92 "Hg2 mi
5:00 PM88 °FHaze.8 mph40%29.83 "Hg3 mi
4:30 PM88 °FHaze.9 mph40%29.83 "Hg3 mi
4:00 PM90 °FHaze.10 mph38%29.83 "Hg3 mi
3:30 PM90 °FHaze.8 mph38%29.83 "Hg2 mi
3:00 PM90 °FHaze.9 mph41%29.83 "Hg2 mi
2:30 PM90 °FHaze.9 mph41%29.86 "Hg2 mi
2:00 PM90 °FHaze.9 mph41%29.86 "Hg2 mi
1:30 PM88 °FHaze.12 mph43%29.89 "Hg2 mi
1:00 PM88 °FHaze.9 mph46%29.92 "Hg2 mi
12:30 PM86 °FHaze.10 mph49%29.95 "Hg2 mi
12:00 PM86 °FScattered clouds.9 mph52%29.95 "Hg2 mi
11:30 AM84 °FScattered clouds.7 mph55%29.98 "Hg2 mi
11:00 AM84 °FScattered clouds.7 mph58%29.98 "Hg2 mi
10:30 AM82 °FScattered clouds.7 mph62%30.01 "Hg2 mi
9:30 AM79 °FScattered clouds.7 mph70%30.01 "Hg1 mi
9:00 AM77 °FFog.5 mph74%29.98 "Hg1 mi
8:30 AM75 °FFog.3 mph83%29.98 "Hg1 mi
7:30 AM73 °FFog.No wind89%29.95 "Hg1 mi
Weather by CustomWeather, © 2016

See weather overviewHow to use our weather pages